When you browse on this site, cookies collect data to enhance your experience and personalize the content and advertising you see.
Visit our Privacy Policy to learn more. By continuing to use the site, you agree to this use of cookies and data.
  • In Portugal
  • List of Countries
  • For 7 days
  • Water Temperature
  • Weather Map
  • Weather Widgets
  • user-avatar
    Login

    Hourly Weather Velikaya Novoselka

    Today, 25 January, Saturday

    Time Temperature Precipitation Wind Pressure Humidity
    00:00 -2°C° 0 mm 7 mps 754 mmHg 69%
    01:00 -2°C° 0 mm 7 mps 754 mmHg 66%
    02:00 -2°C° 0 mm 7 mps 754 mmHg 63%
    03:00 -2°C° 0 mm 7 mps 753 mmHg 66%
    04:00 -3°C° 0 mm 7 mps 753 mmHg 69%
    05:00 -3°C° 0 mm 7 mps 752 mmHg 73%
    06:00 -3°C° 0 mm 7 mps 752 mmHg 72%
    07:00 -3°C° 0 mm 7 mps 752 mmHg 72%
    08:00 -2°C° 0 mm 7 mps 752 mmHg 71%
    09:00 -1°C° 0 mm 7 mps 752 mmHg 68%
    10:00 0°C° 0 mm 8 mps 752 mmHg 64%
    11:00 +1°C° 0 mm 8 mps 752 mmHg 61%
    12:00 +2°C° 0 mm 7 mps 752 mmHg 59%
    13:00 +2°C° 0 mm 7 mps 751 mmHg 57%
    14:00 +3°C° 0 mm 7 mps 751 mmHg 56%
    15:00 +1°C° 0 mm 6 mps 751 mmHg 60%
    16:00 0°C° 0 mm 5 mps 751 mmHg 64%
    17:00 -1°C° 0 mm 4 mps 751 mmHg 68%
    18:00 -1°C° 0 mm 4 mps 751 mmHg 71%
    19:00 -2°C° 0 mm 4 mps 751 mmHg 74%
    20:00 -2°C° 0 mm 4 mps 751 mmHg 77%
    21:00 -2°C° 0 mm 4 mps 751 mmHg 80%
    22:00 -1°C° 0 mm 5 mps 752 mmHg 82%
    23:00 -1°C° 0 mm 5 mps 752 mmHg 84%

    Tomorrow, 26 January, Sunday

    Time Temperature Precipitation Wind Pressure Humidity
    00:00 -1°C° 0 mm 5 mps 752 mmHg 85%
    01:00 -1°C° 0 mm 5 mps 752 mmHg 86%
    02:00 -1°C° 0 mm 5 mps 753 mmHg 87%
    03:00 -1°C° 0 mm 4 mps 753 mmHg 89%
    04:00 -2°C° 0 mm 4 mps 753 mmHg 90%
    05:00 -2°C° 0 mm 4 mps 753 mmHg 91%
    06:00 -2°C° 0 mm 4 mps 754 mmHg 90%
    07:00 -2°C° 0 mm 4 mps 755 mmHg 88%
    08:00 -2°C° 0 mm 4 mps 755 mmHg 87%
    09:00 -1°C° 0 mm 4 mps 756 mmHg 84%
    10:00 -1°C° 0 mm 4 mps 756 mmHg 80%
    11:00 0°C° 0 mm 4 mps 757 mmHg 77%
    12:00 0°C° 0 mm 4 mps 757 mmHg 77%
    13:00 +1°C° 0 mm 3 mps 757 mmHg 76%
    14:00 +1°C° 0 mm 3 mps 757 mmHg 76%
    15:00 0°C° 0 mm 3 mps 757 mmHg 79%
    16:00 +1°C° 0 mm 2 mps 758 mmHg 81%
    17:00 +1°C° 0 mm 1 mps 758 mmHg 84%
    18:00 +1°C° 0 mm 1 mps 758 mmHg 86%
    19:00 0°C° 0 mm 1 mps 758 mmHg 88%
    20:00 0°C° 0 mm 1 mps 758 mmHg 90%
    21:00 0°C° 0 mm 1 mps 758 mmHg 89%
    22:00 0°C° 0 mm 1 mps 758 mmHg 89%
    23:00 0°C° 0 mm 1 mps 758 mmHg 89%

    Day after tomorrow, 27 January, Monday

    Time Temperature Precipitation Wind Pressure Humidity
    00:00 -2°C° 0 mm 2 mps 758 mmHg 89%
    01:00 -2°C° 0 mm 2 mps 758 mmHg 89%
    02:00 -2°C° 0 mm 2 mps 758 mmHg 89%
    03:00 -2°C° 0 mm 2 mps 758 mmHg 90%
    04:00 -2°C° 0 mm 2 mps 758 mmHg 90%
    05:00 -2°C° 0 mm 2 mps 757 mmHg 91%
    06:00 -2°C° 0 mm 2 mps 757 mmHg 90%
    07:00 -2°C° 0 mm 2 mps 757 mmHg 90%
    08:00 -2°C° 0 mm 2 mps 757 mmHg 89%
    09:00 +1°C° 0 mm 2 mps 757 mmHg 81%
    10:00 +2°C° 0 mm 2 mps 757 mmHg 74%
    11:00 +4°C° 0 mm 2 mps 757 mmHg 66%
    12:00 +4°C° 0 mm 2 mps 757 mmHg 64%
    13:00 +5°C° 0 mm 2 mps 756 mmHg 63%
    14:00 +5°C° 0 mm 2 mps 756 mmHg 61%
    15:00 +5°C° 0 mm 1 mps 756 mmHg 67%
    16:00 +4°C° 0 mm 1 mps 756 mmHg 72%
    17:00 +2°C° 0 mm 1 mps 756 mmHg 78%
    18:00 +2°C° 0 mm 1 mps 755 mmHg 80%
    19:00 +2°C° 0 mm 1 mps 755 mmHg 82%
    20:00 +1°C° 0 mm 2 mps 755 mmHg 84%
    21:00 +1°C° 0 mm 2 mps 755 mmHg 86%
    22:00 +1°C° 0 mm 2 mps 755 mmHg 89%
    23:00 +1°C° 0 mm 2 mps 755 mmHg 91%

    28 January, Tuesday

    Time Temperature Precipitation Wind Pressure Humidity
    00:00 +1°C° 0 mm 2 mps 754 mmHg 93%
    01:00 +1°C° 0 mm 2 mps 754 mmHg 94%
    02:00 +1°C° 0 mm 2 mps 754 mmHg 95%
    03:00 +1°C° 0 mm 2 mps 753 mmHg 96%
    04:00 +2°C° 0 mm 2 mps 753 mmHg 96%
    05:00 +2°C° 0 mm 2 mps 753 mmHg 97%
    06:00 +1°C° 0 mm 3 mps 753 mmHg 97%
    07:00 +2°C° 0 mm 3 mps 753 mmHg 97%
    08:00 +2°C° 0 mm 3 mps 752 mmHg 97%
    09:00 +3°C° 0 mm 3 mps 752 mmHg 90%
    10:00 +4°C° 0 mm 4 mps 752 mmHg 84%
    11:00 +5°C° 0 mm 4 mps 752 mmHg 77%
    12:00 +5°C° 0 mm 4 mps 752 mmHg 75%
    13:00 +5°C° 0 mm 4 mps 751 mmHg 74%
    14:00 +5°C° 0 mm 4 mps 751 mmHg 72%
    15:00 +4°C° 0 mm 3 mps 750 mmHg 75%
    16:00 +4°C° 0 mm 3 mps 750 mmHg 79%
    17:00 +4°C° 0 mm 2 mps 750 mmHg 83%
    18:00 +4°C° 0.1 mm 2 mps 750 mmHg 85%
    19:00 +3°C° 0.1 mm 3 mps 750 mmHg 86%
    20:00 +3°C° 0.1 mm 3 mps 750 mmHg 88%
    21:00 +3°C° 0.2 mm 3 mps 750 mmHg 90%
    22:00 +3°C° 0.2 mm 3 mps 749 mmHg 92%
    23:00 +3°C° 0.2 mm 4 mps 749 mmHg 93%

    29 January, Wednesday

    Time Temperature Precipitation Wind Pressure Humidity
    00:00 +3°C° 0.2 mm 4 mps 749 mmHg 93%
    01:00 +3°C° 0.2 mm 4 mps 749 mmHg 92%
    02:00 +3°C° 0.2 mm 3 mps 748 mmHg 91%
    03:00 +3°C° 0.1 mm 4 mps 748 mmHg 92%
    04:00 +3°C° 0.1 mm 4 mps 748 mmHg 92%
    05:00 +3°C° 0.1 mm 4 mps 747 mmHg 93%
    06:00 +3°C° 0.1 mm 3 mps 747 mmHg 94%
    07:00 +3°C° 0.1 mm 3 mps 747 mmHg 96%
    08:00 +4°C° 0.1 mm 3 mps 747 mmHg 97%
    09:00 +4°C° 0 mm 3 mps 747 mmHg 95%
    10:00 +5°C° 0 mm 4 mps 747 mmHg 94%
    11:00 +5°C° 0 mm 4 mps 746 mmHg 92%
    12:00 +6°C° 0 mm 4 mps 746 mmHg 88%
    13:00 +6°C° 0 mm 5 mps 745 mmHg 83%
    14:00 +7°C° 0 mm 5 mps 745 mmHg 78%
    15:00 +6°C° 0 mm 5 mps 745 mmHg 80%
    16:00 +6°C° 0 mm 5 mps 745 mmHg 83%
    17:00 +6°C° 0 mm 4 mps 745 mmHg 85%
    18:00 +6°C° 0.1 mm 5 mps 744 mmHg 86%
    19:00 +5°C° 0.1 mm 5 mps 744 mmHg 88%
    20:00 +4°C° 0.1 mm 6 mps 743 mmHg 89%
    21:00 +4°C° 0.5 mm 7 mps 743 mmHg 89%
    22:00 +5°C° 0.5 mm 8 mps 743 mmHg 89%
    23:00 +5°C° 0.5 mm 9 mps 742 mmHg 88%

    30 January, Thursday

    Time Temperature Precipitation Wind Pressure Humidity
    00:00 +3°C° 0.8 mm 9 mps 743 mmHg 88%
    01:00 +2°C° 0.8 mm 9 mps 743 mmHg 88%
    02:00 +1°C° 0.8 mm 9 mps 743 mmHg 88%
    03:00 +1°C° 0 mm 8 mps 744 mmHg 85%
    04:00 0°C° 0 mm 7 mps 745 mmHg 81%
    05:00 0°C° 0 mm 7 mps 746 mmHg 78%
    06:00 -1°C° 0 mm 6 mps 746 mmHg 77%
    07:00 0°C° 0 mm 5 mps 747 mmHg 75%
    08:00 -1°C° 0 mm 5 mps 748 mmHg 74%
    09:00 +1°C° 0 mm 5 mps 748 mmHg 69%
    10:00 +2°C° 0 mm 6 mps 748 mmHg 63%
    11:00 +3°C° 0 mm 6 mps 748 mmHg 58%
    12:00 +4°C° 0 mm 6 mps 748 mmHg 57%
    13:00 +4°C° 0 mm 6 mps 748 mmHg 56%
    14:00 +6°C° 0 mm 5 mps 747 mmHg 55%
    15:00 +5°C° 0 mm 5 mps 747 mmHg 59%
    16:00 +4°C° 0 mm 4 mps 747 mmHg 63%
    17:00 +3°C° 0 mm 3 mps 747 mmHg 67%
    18:00 +3°C° 0 mm 3 mps 747 mmHg 71%
    19:00 +2°C° 0 mm 3 mps 747 mmHg 74%
    20:00 +2°C° 0 mm 3 mps 747 mmHg 77%
    21:00 +1°C° 0 mm 3 mps 747 mmHg 77%
    22:00 +2°C° 0 mm 2 mps 747 mmHg 77%
    23:00 +2°C° 0 mm 2 mps 747 mmHg 77%
    Show more